Retour au catalogue

STARLINK-11096

ActifCommunicationsVLEO
NORAD 59719·PAYLOAD·🇺🇸 United States

Lancé May 10, 2024 depuis Vandenberg Space Force Base

Loading…

Prochains Passages (prochaines 24 heures)

TLE

FraisSource: CelesTrak SupGP

Époque: Sep 15, 2026, 01:53 UTC

1 59719C 24088M   26258.07895833  .00060738  00000+0  50015-3 0  2584
2 59719  53.1566 113.0102 0001062  77.3071 261.7369 15.69687398    18

Suivez STARLINK-11096 en temps réel avec AllMySat

Download on the App Store